Exceptional Flight Instruction

Our Team

Safe Aircraft

Our Rentals

Outstanding Customer Service

Contact Us

AeroCamp 2017

AeroCamp Times (M-F 9AM-3PM)
June 19-23, 2017 – OPEN
July 10-14, 2017 – OPEN
$649/wk per Cadet (Roster size limited)

AeroCamp 2.0 Times (M-T 9AM-3PM)
June 26-29, 2017 – OPEN
July 17-20, 2017 – OPEN
$749/wk per Cadet (Roster size limited)

AeroCamp 3.0 Times (M-W – INCLUDES KITTY HAWK!)
June 12-14, 2017 – OPEN
August 7-9, 2017 – OPEN
$849/wk per Cadet (Roster size limited)

AeroCamp 4.0 Times (INCLUDES OSHKOSH!!)

July 24-28, 2017 - OPEN

Price TBD (Roster size limited)

About Us

Triad Aviation Academy, LLC


1030 PTI Drive
Greensboro, NC 27409

Phone: (336) 369-2804
Fax: (336) 664-6942

Weather

Available data for KGSO from the past 2 hours
GREENSBORO, NC
Metar
KGSO 100354Z 32004KT 10SM CLR M03/M11 A3046 RMK AO2 SLP324 T10281106

03:54 UTC

Wind: 320° 4kt

Visibility: 10 SM

Sky:

Temp: -3 deg C / 26.6 deg F

Dewpoint: -11 deg C / 12.2 deg F

Pressure: 30.46 inHg

TAF
KGSO 092337Z 1000/1024 34003KT P6SM SKC